Regional Weather Roundup
Issued by NWS

Home | Current Version | Previous Version | Text Only | Print | Product List | Glossary Off
Versions: 1 2 3 4 5 6 7 8 9 10 11 12 13 14 15 16 17 18 19 20 21 22 23 24 25 26 27 28 29 30 31 32 33 34 35 36 37 38 39 40 41 42 43 44 45 46 47 48 49 50

000
ASUS43 KBIS 221710
RWRND

NORTH DAKOTA REGIONAL WEATHER ROUNDUP
NATIONAL WEATHER SERVICE BISMARCK ND
1100 AM CST MON JAN 22 2018

NOTE: "FAIR" INDICATES FEW OR NO CLOUDS BELOW 12,000 FEET WITH NO
SIGNIFICANT WEATHER AND/OR OBSTRUCTIONS TO VISIBILITY.


NDZ001>003-009>011-017-221800-
NORTHWEST NORTH DAKOTA

CITY           SKY/WX    TMP DP  RH WIND       PRES   REMARKS
WILLISTON      SUNNY     13  11  92 SW5       30.02F WCI   5
MINOT          FOG       16  13  88 SE6       30.05S VSB 1/4 WCI   7
MINOT AFB      FOG       15  12  89 S3        30.05S VSB 1/4
$$

NDZ018>021-031>035-040>046-221800-
SOUTHWEST NORTH DAKOTA

CITY           SKY/WX    TMP DP  RH WIND       PRES   REMARKS
BISMARCK       FOG       20  18  92 S3        30.07S VSB 3/4
DICKINSON      SUNNY     23  18  81 W10       29.98R WCI  12
GARRISON         N/A      9   6  88 CALM      30.04S
HETTINGER ARPT SUNNY     29  22  75 NW10      30.00S WCI  20
$$

NDZ004>008-012>016-024-026-027-054-221800-
NORTHEAST NORTH DAKOTA

CITY           SKY/WX    TMP DP  RH WIND       PRES   REMARKS
GRAND FORKS    CLOUDY    25  21  85 N14       30.07F WCI  13
GRND FRKS AFB  CLOUDY    24  20  82 N13       30.07F WCI  13
DEVILS LAKE    CLOUDY    22  21  96 NE9       30.08S WCI  12
$$

NDZ022-023-025-028>030-036>039-047>053-221800-
SOUTHEAST NORTH DAKOTA

CITY           SKY/WX    TMP DP  RH WIND       PRES   REMARKS
FARGO          CLOUDY    26  24  92 N16       30.00F WCI  14
JAMESTOWN      CLOUDY    22  20  92 N14       30.02F WCI   9
$$





USA.gov is the U.S. government's official web portal to all federal, state and local government web resources and services.